Weather reports worldwide

Advertisment
Piacenza, Italy (16084): temperature & dewpoint: 13.11.2019 19:00:00 - 19.11.2019 19:00:00 (CET)Piacenza, Italy (16084): wind speed: 13.11.2019 19:00:00 - 19.11.2019 19:00:00 (CET)Piacenza, Italy (16084): wind direction: 13.11.2019 19:00:00 - 19.11.2019 19:00:00 (CET)Piacenza, Italy (16084): reduced air pressure: 13.11.2019 19:00:00 - 19.11.2019 19:00:00 (CET)Piacenza, Italy (16084): visibility: 13.11.2019 19:00:00 - 19.11.2019 19:00:00 (CET)Piacenza, Italy (16084): sunshine duration: 13.11.2019 19:00:00 - 19.11.2019 19:00:00 (CET)
Date & Time tt [°C] td [°C] ff [km/h] ff [kn] dd ppp [hPa] vv [km] sd [min]
19.11.2019 19:00:00 8,8 8,8 4 2 W 1015,3 1,5 0
19.11.2019 18:00:00 9,0 9,0 - - - - 1,5 -
19.11.2019 17:00:00 9,0 9,0 - - - - 1,5 -
19.11.2019 16:00:00 9,0 9,0 5 3 W 1014,1 1,5 0
19.11.2019 15:00:00 9,0 9,0 - - - - 2,0 -
19.11.2019 14:00:00 9,0 9,0 - - - - 2,0 -
19.11.2019 13:00:00 8,4 8,4 8 4 WSW 1014,3 1,5 0
19.11.2019 12:00:00 8,0 8,0 - - - - 1,5 -
19.11.2019 11:00:00 8,0 8,0 - - - - 1,5 -
19.11.2019 10:00:00 7,2 7,2 4 2 WSW 1014,4 1,5 0
19.11.2019 09:00:00 7,0 7,0 - - - - 1,5 -
19.11.2019 08:00:00 7,0 7,0 - - - - 3,0 -
19.11.2019 07:00:00 6,6 6,6 8 4 W 1013,4 4,0 0
19.11.2019 06:00:00 - - - - - - - -
19.11.2019 05:00:00 - - - - - - - -
19.11.2019 04:00:00 - - - - - - - -
19.11.2019 03:00:00 - - - - - - - -
19.11.2019 02:00:00 - - - - - - - -
19.11.2019 01:00:00 - - - - - - - -
19.11.2019 00:00:00 - - - - - - - -
18.11.2019 23:00:00 - - - - - - - -
18.11.2019 22:00:00 - - - - - - - -
18.11.2019 21:00:00 - - - - - - - -
18.11.2019 20:00:00 - - - - - - - -
18.11.2019 19:00:00 8,0 8,0 4 2 W 1014,3 2,0 0
18.11.2019 18:00:00 8,0 8,0 - - - - 2,5 -
18.11.2019 17:00:00 8,0 8,0 - - - - 3,0 -
18.11.2019 16:00:00 9,0 9,0 4 2 W 1014,2 5 0
18.11.2019 15:00:00 9,0 9,0 - - - - 8 -
18.11.2019 14:00:00 9,0 8,0 - - - - 10 -
18.11.2019 13:00:00 9,4 7,8 5 3 N 1013,4 20 0
18.11.2019 12:00:00 9,0 7,0 - - - - 10 -
18.11.2019 11:00:00 8,0 8,0 - - - - 10 -
18.11.2019 10:00:00 5,0 5,0 2 1 WSW 1012,9 25 18
18.11.2019 09:00:00 3,0 3,0 - - - - 10 -
18.11.2019 08:00:00 3,0 3,0 - - - - 10 -
18.11.2019 07:00:00 3,0 3,0 4 2 W 1010,6 15 0
18.11.2019 06:00:00 - - - - - - - -
18.11.2019 05:00:00 - - - - - - - -
18.11.2019 04:00:00 - - - - - - - -
18.11.2019 03:00:00 - - - - - - - -
18.11.2019 02:00:00 - - - - - - - -
18.11.2019 01:00:00 - - - - - - - -
18.11.2019 00:00:00 - - - - - - - -
17.11.2019 23:00:00 - - - - - - - -
17.11.2019 22:00:00 - - - - - - - -
17.11.2019 21:00:00 - - - - - - - -
17.11.2019 20:00:00 - - - - - - - -
17.11.2019 19:00:00 6,6 6,6 9 5 E 1005,4 12 0
17.11.2019 18:00:00 7,0 7,0 - - - - 10 -
17.11.2019 17:00:00 8,0 8,0 - - - - 10 -
17.11.2019 16:00:00 8,6 7,4 5 3 W 1002,7 20 60
17.11.2019 15:00:00 9,0 7,0 - - - - 10 -
17.11.2019 14:00:00 8,0 8,0 - - - - 10 -
17.11.2019 13:00:00 7,6 6,9 8 4 WNW 1001,9 4,7 0
17.11.2019 12:00:00 7,0 7,0 - - - - 10 -
17.11.2019 11:00:00 7,0 7,0 - - - - 10 -
17.11.2019 10:00:00 6,2 6,2 5 3 W 1001,2 3,2 0
17.11.2019 09:00:00 6,0 6,0 - - - - 4,5 -
17.11.2019 08:00:00 6,0 6,0 - - - - 3,2 -
17.11.2019 07:00:00 6,2 6,2 5 3 SW 1002,8 2,5 0
17.11.2019 06:00:00 - - - - - - - -
17.11.2019 05:00:00 - - - - - - - -
17.11.2019 04:00:00 - - - - - - - -
17.11.2019 03:00:00 - - - - - - - -
17.11.2019 02:00:00 - - - - - - - -
17.11.2019 01:00:00 - - - - - - - -
17.11.2019 00:00:00 - - - - - - - -
16.11.2019 23:00:00 - - - - - - - -
16.11.2019 22:00:00 - - - - - - - -
16.11.2019 21:00:00 - - - - - - - -
16.11.2019 20:00:00 - - - - - - - -
16.11.2019 19:00:00 8,0 8,0 2 1 W 1012,4 2,5 0
16.11.2019 18:00:00 8,0 8,0 - - - - 2,8 -
16.11.2019 17:00:00 8,0 8,0 - - - - 2,8 -
16.11.2019 16:00:00 8,2 8,2 4 2 W 1012,8 3,5 0
16.11.2019 15:00:00 8,0 8,0 - - - - 3,5 -
16.11.2019 14:00:00 8,0 8,0 - - - - 3,5 -
16.11.2019 13:00:00 8,0 8,0 4 2 WNW 1012,6 4,0 0
16.11.2019 12:00:00 7,0 7,0 - - - - 3,2 -
16.11.2019 11:00:00 7,0 7,0 - - - - 2,2 -
16.11.2019 10:00:00 6,4 6,4 4 2 W 1012,0 0,6 0
16.11.2019 09:00:00 6,0 6,0 - - - - 0,2 -
16.11.2019 08:00:00 6,0 6,0 - - - - 0,1 -
16.11.2019 07:00:00 6,0 6,0 5 3 WSW 1009,2 12 0
16.11.2019 06:00:00 - - - - - - - -
16.11.2019 05:00:00 - - - - - - - -
16.11.2019 04:00:00 - - - - - - - -
16.11.2019 03:00:00 - - - - - - - -
16.11.2019 02:00:00 - - - - - - - -
16.11.2019 01:00:00 - - - - - - - -
16.11.2019 00:00:00 - - - - - - - -
15.11.2019 23:00:00 - - - - - - - -
15.11.2019 22:00:00 - - - - - - - -
15.11.2019 21:00:00 - - - - - - - -
15.11.2019 20:00:00 - - - - - - - -
15.11.2019 19:00:00 7,6 7,6 9 5 WNW 1002,9 5 0
15.11.2019 18:00:00 8,0 8,0 - - - - 6 -
15.11.2019 17:00:00 8,0 8,0 - - - - 6 -
15.11.2019 16:00:00 8,2 8,2 4 2 S 1001,8 6 0
15.11.2019 15:00:00 7,0 7,0 - - - - 6 -
15.11.2019 14:00:00 7,0 7,0 - - - - 7 -
15.11.2019 13:00:00 7,2 7,2 4 2 S 1002,6 8 0
15.11.2019 12:00:00 7,0 7,0 - - - - 8 -
15.11.2019 11:00:00 7,0 7,0 - - - - 7 -
15.11.2019 10:00:00 8,0 8,0 8 4 WNW 1001,4 6 0
15.11.2019 09:00:00 9,0 9,0 - - - - 5 -
15.11.2019 08:00:00 11,0 11,0 - - - - 6 -
15.11.2019 07:00:00 11,0 11,0 15 8 ESE 998,6 7 -
15.11.2019 06:00:00 - - - - - - - -
15.11.2019 05:00:00 - - - - - - - -
15.11.2019 04:00:00 - - - - - - - -
15.11.2019 03:00:00 - - - - - - - -
15.11.2019 02:00:00 - - - - - - - -
15.11.2019 01:00:00 - - - - - - - -
15.11.2019 00:00:00 - - - - - - - -
14.11.2019 23:00:00 - - - - - - - -
14.11.2019 22:00:00 - - - - - - - -
14.11.2019 21:00:00 - - - - - - - -
14.11.2019 20:00:00 - - - - - - - -
14.11.2019 19:00:00 7,4 7,4 2 1 SW 1005,6 10 0
14.11.2019 18:00:00 8,0 8,0 5 3 NW - 10 -
14.11.2019 17:00:00 9,0 9,0 8 4 WNW - 10 -
14.11.2019 16:00:00 10,0 8,4 8 4 ENE 1006,5 10 0
14.11.2019 15:00:00 10,0 8,0 13 7 E - 10 -
14.11.2019 14:00:00 10,0 8,0 15 8 E - 10 -
14.11.2019 13:00:00 8,6 7,7 9 5 E 1007,9 10 0
14.11.2019 12:00:00 7,0 7,0 8 4 NNE - 8 -
14.11.2019 11:00:00 6,0 3,0 11 6 ESE - 10 -
14.11.2019 10:00:00 4,0 2,5 9 5 E 1009,2 15 6
14.11.2019 09:00:00 3,0 3,0 8 4 W - 10 -
14.11.2019 08:00:00 2,0 2,0 - - - - 10 -
14.11.2019 07:00:00 2,0 2,0 8 4 WSW 1008,4 15 0
14.11.2019 06:00:00 - - - - - - - -
14.11.2019 05:00:00 - - - - - - - -
14.11.2019 04:00:00 - - - - - - - -
14.11.2019 03:00:00 - - - - - - - -
14.11.2019 02:00:00 - - - - - - - -
14.11.2019 01:00:00 - - - - - - - -
14.11.2019 00:00:00 - - - - - - - -
13.11.2019 23:00:00 - - - - - - - -
13.11.2019 22:00:00 - - - - - - - -
13.11.2019 21:00:00 - - - - - - - -
13.11.2019 20:00:00 - - - - - - - -
13.11.2019 19:00:00 7,4 0,8 9 5 SW 1002,4 30 0

tt = temperature
td = dewpoint
ff = wind speed
dd = wind direction
ppp = reduced air pressure
vv = visibility
sd = sunshine duration

Next stations